GW4041 Weather Reports


Display with metric or nautical units.
time (UTC)temp
F
wind
direction
speed
MPH
gust
MPH
rain 1hr
in
rain 24hr
in
rain mn
in
humidity
%
barometer
mb
20260504185721 72 216 0.0 2.0 0.00 0.00 0.00 38 1010.3
20260504185218 73 113 3.0 6.0 0.00 0.00 0.00 36 1010.3
20260504184714 72 290 2.0 3.0 0.00 0.00 0.00 36 1010.4
20260504184210 72 92 1.0 3.0 0.00 0.00 0.00 40 1010.7
20260504183706 73 97 3.0 6.0 0.00 0.00 0.00 38 1010.6
20260504183203 73 206 1.0 2.0 0.00 0.00 0.00 36 1010.5
20260504182701 72 327 4.0 5.0 0.00 0.00 0.00 36 1010.4
20260504182158 73 226 1.0 6.0 0.00 0.00 0.00 39 1010.6
20260504181655 71 66 1.0 5.0 0.00 0.00 0.00 39 1010.8
20260504181153 72 204 2.0 7.0 0.00 0.00 0.00 36 1010.9
20260504180652 71 243 3.0 6.0 0.00 0.00 0.00 38 1011.0
20260504180150 71 250 2.0 3.0 0.00 0.00 0.00 39 1010.9
20260504175647 72 213 2.0 5.0 0.00 0.00 0.00 37 1011.1
20260504175143 72 46 2.0 3.0 0.00 0.00 0.00 37 1010.8
20260504174642 72 338 0.0 3.0 0.00 0.00 0.00 37 1011.2
20260504174138 72 117 1.0 3.0 0.00 0.00 0.00 36 1011.3
20260504173635 72 213 1.0 3.0 0.00 0.00 0.00 37 1011.3
20260504173133 71 103 2.0 3.0 0.00 0.00 0.00 41 1011.5
20260504172629 71 218 1.0 3.0 0.00 0.00 0.00 38 1011.5
20260504172125 70 200 2.0 6.0 0.00 0.00 0.00 38 1011.3
20260504171622 71 220 3.0 5.0 0.00 0.00 0.00 37 1011.4
20260504171119 70 55 1.0 3.0 0.00 0.00 0.00 38 1011.5
20260504170615 71 153 2.0 5.0 0.00 0.00 0.00 38 1011.6
20260504170113 70 246 0.0 2.0 0.00 0.00 0.00 38 1011.8
20260504150958 66 330 2.0 7.0 0.00 0.00 0.00 44 1013.2
20260504150455 66 274 1.0 5.0 0.00 0.00 0.00 44 1013.0
20260504140922 64 84 1.0 2.0 0.00 0.00 0.00 49 1013.3
20260504140418 64 162 3.0 7.0 0.00 0.00 0.00 51 1013.2
20260504130343 61 24 1.0 2.0 0.00 0.00 0.00 58 1014.3
20260504120306 54 316 2.0 6.0 0.00 0.00 0.00 70 1014.3
20260504110230 48 48 1.0 1.0 0.00 0.00 0.00 77 1014.7
20260504100148 43 38 1.0 1.0 0.00 0.00 0.00 74 1014.3
20260504090111 46 329 1.0 1.0 0.00 0.00 0.00 71 1014.1
20260504081541 45 238 1.0 2.0 0.00 0.00 0.00 73 1013.7
20260504081037 44 310 0.0 0.0 0.00 0.00 0.00 68 1013.7
20260504080534 44 304 0.0 0.0 0.00 0.00 0.00 68 1014.0
20260504050346 48 324 1.0 1.0 0.00 0.00 0.00 63 1013.5
20260504045843 48 353 0.0 1.0 0.00 0.00 0.00 65 1013.7
20260504045343 47 279 0.0 1.0 0.00 0.00 0.00 63 1013.7
20260504044841 48 277 1.0 1.0 0.00 0.00 0.00 65 1013.7
20260504044338 47 284 1.0 2.0 0.00 0.00 0.00 61 1013.5
20260504043835 47 318 0.0 0.0 0.00 0.00 0.00 65 1013.4
20260504043332 47 345 0.0 0.0 0.00 0.00 0.00 64 1013.3
20260504042829 47 332 0.0 0.0 0.00 0.00 0.00 64 1013.5
20260504042325 47 335 0.0 0.0 0.00 0.00 0.00 64 1013.5
20260504041822 48 352 0.0 1.0 0.00 0.00 0.00 63 1013.4
20260504041318 48 315 0.0 1.0 0.00 0.00 0.00 61 1013.1
20260504040814 46 19 0.0 0.0 0.00 0.00 0.00 66 1013.3
20260504040312 46 335 0.0 0.0 0.00 0.00 0.00 67 1013.5
20260504035808 47 326 0.0 0.0 0.00 0.00 0.00 65 1013.3
20260504035305 47 358 0.0 0.0 0.00 0.00 0.00 64 1013.0
20260504034802 47 332 0.0 2.0 0.00 0.00 0.00 62 1013.3
20260504034300 47 282 0.0 0.0 0.00 0.00 0.00 65 1013.2
20260504033757 47 344 0.0 0.0 0.00 0.00 0.00 67 1013.0
20260504033255 47 318 0.0 0.0 0.00 0.00 0.00 66 1013.1
20260504032751 47 328 0.0 0.0 0.00 0.00 0.00 68 1012.9
20260504032248 47 304 0.0 0.0 0.00 0.00 0.00 70 1012.9
20260504031745 47 326 0.0 0.0 0.00 0.00 0.00 64 1012.9
20260504031243 47 337 0.0 0.0 0.00 0.00 0.00 70 1012.9
20260504030738 47 335 0.0 0.0 0.00 0.00 0.00 68 1013.0
20260504030236 48 327 0.0 0.0 0.00 0.00 0.00 68 1012.9
20260504025732 48 358 0.0 0.0 0.00 0.00 0.00 63 1012.8
20260504025229 48 333 0.0 0.0 0.00 0.00 0.00 62 1013.0
20260504024726 48 323 0.0 0.0 0.00 0.00 0.00 65 1012.9
20260504024222 48 328 0.0 1.0 0.00 0.00 0.00 65 1012.9
20260504023719 48 1 1.0 1.0 0.00 0.00 0.00 61 1013.2
20260504023215 48 321 0.0 1.0 0.00 0.00 0.00 66 1013.0
20260504022712 48 343 0.0 1.0 0.00 0.00 0.00 65 1012.8
20260504022208 48 334 0.0 1.0 0.00 0.00 0.00 60 1013.0
20260504021706 49 353 0.0 1.0 0.00 0.00 0.00 64 1012.9
20260504021202 49 26 0.0 2.0 0.00 0.00 0.00 58 1013.0
20260504020659 48 326 0.0 0.0 0.00 0.00 0.00 65 1013.0
20260504020155 48 326 0.0 0.0 0.00 0.00 0.00 66 1013.0
20260504015652 49 19 0.0 0.0 0.00 0.00 0.00 63 1012.7
20260504015148 49 316 0.0 0.0 0.00 0.00 0.00 60 1013.0
20260504014644 48 331 0.0 0.0 0.00 0.00 0.00 63 1013.0
20260504014141 48 350 0.0 0.0 0.00 0.00 0.00 69 1013.1
20260504013639 48 325 0.0 0.0 0.00 0.00 0.00 65 1013.0
20260504013136 48 310 0.0 0.0 0.00 0.00 0.00 67 1013.0
20260504012633 48 327 0.0 0.0 0.00 0.00 0.00 65 1012.7
20260504012131 48 326 0.0 0.0 0.00 0.00 0.00 67 1012.7
20260504011627 48 303 0.0 0.0 0.00 0.00 0.00 62 1012.5
20260504011124 48 299 0.0 0.0 0.00 0.00 0.00 66 1012.3
20260504010620 48 343 0.0 0.0 0.00 0.00 0.00 67 1012.5
20260504010116 48 327 0.0 0.0 0.00 0.00 0.00 65 1012.4
20260504005613 48 344 0.0 0.0 0.00 0.00 0.00 64 1012.5
20260504005110 49 328 0.0 0.0 0.00 0.00 0.00 65 1012.3
20260504004608 49 307 1.0 1.0 0.00 0.00 0.00 62 1012.4
20260504004105 49 308 0.0 1.0 0.00 0.00 0.00 60 1012.1
20260504003600 50 342 1.0 1.0 0.00 0.00 0.00 59 1012.0
20260504003057 50 323 0.0 1.0 0.00 0.00 0.00 58 1012.0
20260504002554 50 323 0.0 0.0 0.00 0.00 0.00 58 1012.1
20260504002052 51 328 0.0 0.0 0.00 0.00 0.00 58 1011.8
20260504001550 51 314 0.0 0.0 0.00 0.00 0.00 53 1011.8
20260504001045 52 327 0.0 0.0 0.00 0.00 0.00 53 1011.8
20260504000543 52 312 0.0 0.0 0.00 0.00 0.00 50 1011.8
20260504000040 53 313 0.0 0.0 0.00 0.00 0.00 47 1011.6
20260503235538 53 330 0.0 0.0 0.00 0.00 0.00 45 1011.6
20260503235035 54 335 0.0 0.0 0.00 0.00 0.00 44 1011.6
20260503234532 54 310 0.0 0.0 0.00 0.00 0.00 43 1011.6
20260503234031 55 319 0.0 0.0 0.00 0.00 0.00 43 1011.2
20260503233527 55 349 0.0 0.0 0.00 0.00 0.00 42 1011.3
20260503233023 56 1 0.0 0.0 0.00 0.00 0.00 41 1011.2
20260503232520 56 299 0.0 1.0 0.00 0.00 0.00 40 1011.3
20260503232018 56 24 0.0 1.0 0.00 0.00 0.00 41 1011.3
20260503231515 57 287 0.0 5.0 0.00 0.00 0.00 39 1011.1
20260503231012 56 339 0.0 1.0 0.00 0.00 0.00 42 1011.0
20260503230508 57 341 1.0 3.0 0.00 0.00 0.00 39 1011.1
20260503230006 57 318 2.0 3.0 0.00 0.00 0.00 40 1011.0
20260503225503 57 322 0.0 0.0 0.00 0.00 0.00 38 1010.9
20260503224957 57 281 1.0 2.0 0.00 0.00 0.00 38 1011.1
20260503224455 57 22 1.0 2.0 0.00 0.00 0.00 36 1010.9
20260503223953 57 337 1.0 2.0 0.00 0.00 0.00 36 1011.0
20260503223450 57 36 7.0 9.0 0.00 0.00 0.00 35 1011.1
20260503222946 57 32 1.0 3.0 0.00 0.00 0.00 38 1010.9
20260503222445 57 248 3.0 7.0 0.00 0.00 0.00 37 1010.8
20260503221942 58 275 2.0 6.0 0.00 0.00 0.00 36 1010.7
20260503221440 58 342 3.0 3.0 0.00 0.00 0.00 35 1011.0
20260503220937 58 317 2.0 5.0 0.00 0.00 0.00 35 1010.9
20260503220433 58 273 2.0 3.0 0.00 0.00 0.00 35 1011.2
20260503215931 58 310 1.0 5.0 0.00 0.00 0.00 38 1011.0
20260503215427 58 163 2.0 3.0 0.00 0.00 0.00 36 1011.0
20260503214925 58 41 1.0 5.0 0.00 0.00 0.00 36 1011.0
20260503214423 58 358 2.0 2.0 0.00 0.00 0.00 36 1011.0
20260503213920 58 339 1.0 3.0 0.00 0.00 0.00 37 1010.9
20260503213418 58 270 2.0 3.0 0.00 0.00 0.00 35 1011.1
20260503212914 58 260 4.0 6.0 0.00 0.00 0.00 35 1011.0
20260503212412 58 293 4.0 6.0 0.00 0.00 0.00 35 1011.0
20260503211909 58 314 3.0 8.0 0.00 0.00 0.00 35 1010.9
20260503211405 58 69 1.0 2.0 0.00 0.00 0.00 37 1011.1
20260503210901 58 97 1.0 2.0 0.00 0.00 0.00 36 1011.0
20260503210358 58 337 3.0 7.0 0.00 0.00 0.00 35 1011.1
20260503205853 58 6 2.0 6.0 0.00 0.00 0.00 36 1011.2
20260503205350 57 276 3.0 9.0 0.00 0.00 0.00 35 1011.1
20260503204846 57 214 2.0 7.0 0.00 0.00 0.00 37 1011.2
20260503204343 58 33 5.0 9.0 0.00 0.00 0.00 35 1011.0
20260503203841 58 324 4.0 6.0 0.00 0.00 0.00 35 1011.0
20260503203338 58 166 4.0 5.0 0.00 0.00 0.00 35 1011.0
20260503202835 57 359 0.0 5.0 0.00 0.00 0.00 37 1011.0
20260503202333 58 334 1.0 6.0 0.00 0.00 0.00 35 1011.2
20260503201831 57 354 2.0 3.0 0.00 0.00 0.00 36 1011.1
20260503201328 58 258 3.0 10.0 0.00 0.00 0.00 35 1011.1
20260503200825 58 20 0.0 6.0 0.00 0.00 0.00 35 1011.1
20260503200321 58 38 2.0 5.0 0.00 0.00 0.00 35 1011.2
20260503195819 58 270 4.0 8.0 0.00 0.00 0.00 36 1011.1
20260503195315 58 353 4.0 7.0 0.00 0.00 0.00 36 1011.2
20260503194813 57 274 4.0 6.0 0.00 0.00 0.00 38 1011.4
20260503194308 57 136 2.0 8.0 0.00 0.00 0.00 36 1011.4
20260503193804 57 206 3.0 5.0 0.00 0.00 0.00 36 1011.3
20260503193300 57 300 3.0 6.0 0.00 0.00 0.00 35 1011.4
20260503192756 58 319 3.0 10.0 0.00 0.00 0.00 34 1011.5
20260503192252 58 28 0.0 3.0 0.00 0.00 0.00 36 1011.4
20260503191749 58 2 3.0 8.0 0.00 0.00 0.00 35 1011.7
20260503191246 58 10 5.0 7.0 0.00 0.00 0.00 35 1011.4
20260503190742 58 329 5.0 8.0 0.00 0.00 0.00 35 1011.4
20260503190239 58 351 3.0 7.0 0.00 0.00 0.00 36 1011.2